Location: Burzi?i
(45.0869°N, 16.0577°E)
Time: 04:30:09
(UTC+00:00)

COSMO-SKYMED 1 - Pass Details

Date: 29 October 2020
Orbit: 621 x 623 km, 97.9° (Epoch: 01 December)

Event Time Altitude Azimuth Distance (km) Brightness Sun altitude
Rises 17:01:20 0° 14° (NNE) 2,914 5.8 -13.5°
Reaches altitude 10° 17:03:33 10° 15° (NNE) 2,003 5.0 -13.9°
Maximum altitude 17:07:54 80° 102° (ESE) 639 2.5 -14.7°
Drops below altitude 10° 17:12:14 10° 190° (S) 1,985 5.3 -15.4°
Sets 17:14:25 0° 192° (SSW) 2,887 6.2 -15.8°
